Regional Weather Roundup
Issued by NWS Newport/Morehead, NC

Current Version | Previous Version | Graphics & Text | Print | Product List | Glossary Off
Versions: 1 2 3 4 5 6 7 8 9 10 11 12 13 14 15 16 17 18 19 20 21 22 23 24 25 26 27 28 29 30 31 32 33 34 35 36 37 38 39 40 41 42 43 44 45 46 47 48 49 50

322
ASUS42 KMHX 082325
RWRMHX
WEATHER ROUNDUP FOR EASTERN NORTH CAROLINA
NATIONAL WEATHER SERVICE NEWPORT/MOREHEAD CITY NC
600 PM EST MON FEB 08 2016

NOTE: "FAIR" INDICATES FEW OR NO CLOUDS BELOW 12,000 FEET
WITH NO SIGNIFICANT WEATHER AND/OR OBSTRUCTIONS TO VISIBILITY

NCZ015>017-031-032-045>047-102-103-090000-
NORTH COAST

CITY           SKY/WX    TMP DP  RH WIND       PRES   REMARKS
EDENTON        PTCLDY    46  38  73 E8        29.70F
ELIZABETH CITY CLOUDY    42  36  79 E13       29.73S
KITTY HAWK     CLOUDY    42  34  73 CALM      29.73S
MANTEO         MOCLDY    42  37  82 SE7       29.74S

$$

NCZ045>047-081-094-103-104-090000-
CENTRAL COAST

CITY           SKY/WX    TMP DP  RH WIND       PRES   REMARKS
FRISCO         PTCLDY    47  35  63 SE6       29.73F
SWANQUARTER      N/A     46 N/A N/A SE2       29.68S

$$

NCZ095-097-098-100-101-090000-
SOUTHERN COAST

CITY           SKY/WX    TMP DP  RH WIND       PRES   REMARKS
BEAUFORT       PTCLDY    48  39  71 S3        29.70F
CEDAR ISLAND     N/A     46 N/A N/A E1        29.74F
JACKSONVILLE   CLOUDY    49  38  65 S8        29.68S
PINEY ISLAND   MOCLDY   N/A N/A N/A SE5       29.70F
WILMINGTON     CLOUDY    52  34  50 SW10      29.69S


$$

NCZ011>013-027>030-043-044-078>080-089-090>093-098-090000-
COASTAL PLAIN

CITY           SKY/WX    TMP DP  RH WIND       PRES   REMARKS
AHOSKIE        MOCLDY    46  31  55 CALM      29.69R
CLINTON        PTCLDY    51  37  57 S3        29.66S
ELIZABETHTOWN  CLOUDY    52  36  53 SW5       29.69R
GOLDSBORO      PTCLDY    52  30  43 S3        29.65R
GREENVILLE     PTCLDY    50  32  50 S3        29.71R
HAVELOCK       MOCLDY    48  36  63 SE3       29.70F
KENANSVILLE    PTCLDY    47  34  60 CALM      29.68R
KINSTON        PTCLDY    50  36  57 S6        29.68R
NEW BERN       PTCLDY    48  34  58 S5        29.70S
RICHLANDS      CLOUDY    46  34  61 S7        29.68S
ROCKY MOUNT    MOCLDY    47  34  60 CALM      29.66R
WASHINGTON     PTCLDY    47  34  59 CALM      29.68S
WHITEVILLE     CLOUDY    53  36  52 S7        29.67S

$$

AMZ130-135-150-152-154-156-158-170-250-252-270-ANZ085-086-088-633-658-670-090000-
MARINE OBSERVATIONS

STATION/POSITION TIME  TEMP    WIND        PRES    WAVE   SWELL
                       AIR SEA DIR/SP/G            HT/PER HT/PER
                 (UTC) (F)     (DEG/KT/KT) (MB)    (FT/S) (FT/S)
CHESAPEAKE LIGHT 2300   42     100/ 12/ 13 1007.6
64 E VA BEACH    2250   44 52  310/  4/  8 1007.2   14/14  15/14
DUCK             2300   43     120/ 10/ 11 1006.5
2 E DUCK         2311      44                N/A    12/12  10/12
OREGON INLET     2300   43 45   90/  6/  8 1007.0
13E OREGON INLT  2300      47                N/A    16/17  15/17
HATTERAS CG      2300   48 51  110/  5/  7 1006.2
DIAMOND BUOY     2250   51 74   10/  2/  6 1007.2   10/13  10/13
CAPE LOOKOUT     NOT AVBL
BEAUFORT LAB     2300   50 47  180/  5/  6 1004.5
30 SE NEW RVR IN 2308   58 62              1005.2
30 SE NEW RVR IN 2225      62                N/A     6/13   3/13
27 SE WRIGHTSVLE 2308   56 61  250/ 19/ 27 1005.0
5 SE WRIGHTSVLE  2208   53 52  230/ 16/ 21 1005.6
225 S CAPE HAT   2250   63 69  250/ 21/ 27   N/A    13/15  11/15
41 SE CHARLESTON 2250   60 65  220/ 27/ 33 1005.8    8/ 7   3/11

$$




USA.gov is the U.S. government's official web portal to all federal, state and local government web resources and services.